Wind_Speed
28 29 27 25 24 23 23 21 19 20 18 22 30 33 32 25 28 32 33 32 31 31 33 36 40 40 34 28 27 28 31 31 33 35 37 38 39 40 40 41 39 36 36 34
29 27 23 24 22 21 23 26 26 25 24 26 30 34 34 33 32 31 35 37 36 33 34 38 43 46 43 38 33 32 34 35 37 39 40 42 43 44 44 45 42 40 39 37
24 18 17 21 22 21 24 26 28 29 29 31 32 34 37 41 38 35 37 41 41 39 38 41 45 48 46 40 37 35 36 38 40 42 43 45 47 47 47 46 44 44 42 39
20 19 17 19 20 21 24 24 26 28 30 32 32 35 36 36 34 30 31 36 39 40 39 40 45 48 46 43 40 38 38 40 42 43 45 47 48 48 48 47 46 46 43 39
17 17 20 20 19 20 21 20 21 23 27 31 33 37 36 31 29 30 30 32 36 40 38 38 41 44 44 42 40 39 39 41 43 45 46 47 49 48 48 47 47 47 45 43
20 17 18 18 18 19 18 19 21 23 24 28 26 29 32 29 28 29 28 28 34 35 35 37 37 37 38 39 39 39 40 42 44 46 46 47 48 48 48 49 49 48 47 45
21 21 21 20 19 19 19 18 18 18 20 20 17 21 23 20 21 24 26 29 33 35 37 38 38 36 36 37 38 39 41 43 45 46 47 47 48 49 49 49 48 48 48 48
21 22 21 23 24 21 20 20 19 18 18 18 16 17 16 17 20 23 28 32 36 40 40 40 39 37 35 36 37 39 40 43 45 46 47 48 48 48 48 48 47 47 49 49
21 19 20 24 25 25 22 22 20 21 22 24 23 23 22 20 22 25 27 29 30 32 31 30 32 33 34 35 37 38 39 40 42 43 44 46 46 46 46 47 47 48 50 51
30 28 20 17 22 25 23 21 21 24 25 27 25 22 20 22 22 23 26 26 28 29 27 28 29 31 33 35 35 36 36 38 39 40 42 43 44 44 45 45 47 49 51 54
35 35 29 20 20 21 22 23 23 25 25 25 24 20 21 24 24 24 22 22 29 32 33 34 32 30 32 33 34 35 36 38 40 41 43 44 46 46 47 48 50 52 54 56
36 37 37 33 27 23 25 25 24 26 27 27 28 26 26 30 29 29 31 36 41 41 37 34 31 30 31 33 34 36 38 40 41 43 44 46 47 48 49 50 53 55 57 57
40 41 40 35 31 27 26 27 28 29 29 29 28 26 28 32 32 33 37 41 40 36 30 28 30 32 33 34 36 38 40 42 44 45 46 48 50 51 52 54 56 58 58 59
38 40 40 35 26 25 32 32 30 28 30 31 29 29 34 36 34 37 40 41 34 22 21 25 30 33 35 37 39 41 43 45 47 49 50 52 54 55 56 57 58 59 61 61
39 41 41 40 37 33 30 31 32 33 34 32 30 28 34 35 36 39 41 41 38 36 34 34 36 39 41 43 44 46 48 50 52 53 54 55 55 56 57 58 60 61 63 64
37 38 39 39 39 40 40 39 36 32 29 29 31 34 42 46 45 45 46 46 49 50 50 48 47 47 47 48 49 51 52 54 55 55 55 55 55 57 59 61 63 65 65 64
34 35 36 37 37 38 41 41 41 42 42 43 44 47 49 49 48 49 51 53 54 54 54 53 52 50 50 49 50 51 52 53 54 54 54 54 56 58 61 65 66 63 60 57
33 34 34 34 35 39 36 35 39 42 46 47 49 49 49 48 46 47 48 50 52 53 53 53 51 50 49 49 49 49 50 50 51 51 52 55 57 59 61 63 62 59 52 49
32 32 32 33 33 34 30 35 37 40 44 44 44 44 44 45 45 45 46 48 49 50 51 51 50 49 48 47 47 48 48 48 48 49 52 54 56 59 61 59 55 50 46 45
29 29 30 30 31 31 33 35 36 36 40 39 39 38 39 40 42 43 44 45 46 47 47 47 47 46 46 45 45 44 44 45 47 49 52 55 57 58 56 52 48 44 44 45
25 25 26 27 29 30 33 34 35 37 40 39 37 36 36 38 39 40 41 42 42 43 43 43 43 42 40 40 39 40 41 43 46 50 52 53 51 48 45 43 42 42 43 44
26 25 24 26 28 31 33 33 34 35 35 36 35 35 36 36 37 37 38 38 38 38 37 37 35 34 33 33 35 37 40 44 46 47 47 44 42 41 40 39 40 41 42 42
25 26 26 27 27 30 31 32 33 33 34 34 34 34 35 35 34 34 33 33 32 32 31 30 29 28 29 31 33 36 39 41 40 39 37 36 35 37 38 39 39 39 38 36
22 23 24 26 28 31 32 32 32 32 33 33 33 33 33 32 31 30 29 28 27 27 27 26 25 26 28 30 32 34 34 32 31 31 32 33 34 35 36 37 36 34 31 28
21 22 22 24 27 30 31 30 30 30 30 30 30 30 29 28 26 25 24 23 23 22 22 22 23 25 26 26 25 25 26 27 28 30 32 33 34 34 33 32 29 26 23 21
22 22 22 23 25 26 27 26 26 26 26 25 24 23 22 21 20 19 19 18 18 18 18 19 19 19 19 20 21 23 24 26 28 30 31 32 31 29 27 24 21 19 18 18
Wind_Direction
236 237 238 240 241 239 233 230 239 257 261 245 250 253 257 244 251 257 256 258 261 267 273 277 278 279 280 289 295 291 286 285 284 285 287 289 291 292 293 293 291 282 281 279
235 237 239 238 236 240 238 231 228 229 229 233 242 252 256 251 240 253 264 264 263 261 265 272 276 277 284 289 292 287 282 281 280 281 283 285 288 289 291 293 293 290 285 279
233 229 238 238 232 234 240 241 236 235 235 232 237 246 254 261 260 255 257 264 269 268 265 266 270 275 283 286 288 285 280 278 279 281 282 283 284 286 289 292 295 296 293 287
220 210 224 238 236 235 244 248 247 242 242 241 241 253 257 268 277 275 266 265 266 270 273 269 267 272 279 282 283 282 279 279 280 281 281 281 281 284 288 292 297 299 298 294
207 214 223 238 239 238 244 245 247 251 254 255 250 253 257 260 264 267 269 269 263 266 273 273 268 269 273 277 278 278 278 279 280 281 281 281 283 284 289 293 296 299 299 299
207 216 235 237 242 247 246 248 251 252 256 262 269 270 272 267 262 265 270 265 259 263 268 269 269 268 269 271 273 276 277 279 280 281 282 283 285 288 291 293 296 296 296 297
217 216 226 239 238 245 253 256 260 266 271 282 295 286 289 286 267 254 254 252 255 260 262 264 267 268 266 267 270 273 276 279 280 282 284 285 287 289 291 293 294 293 294 296
233 240 237 242 248 247 250 260 260 256 257 265 266 274 279 272 257 246 244 249 256 264 267 267 266 267 265 266 269 271 274 277 279 282 283 284 286 288 289 289 290 291 292 295
228 240 255 255 256 255 240 244 260 267 268 266 261 256 257 272 280 275 266 262 263 266 269 270 268 266 264 266 268 271 274 276 278 279 281 283 284 285 286 287 288 290 292 293
217 219 215 236 240 253 256 247 243 250 260 266 269 271 274 264 257 255 255 255 257 260 268 273 270 265 265 267 270 273 276 277 278 280 281 282 282 284 285 287 289 290 291 294
222 221 213 209 230 243 252 259 254 248 248 258 268 269 273 272 261 254 259 263 266 268 275 279 272 268 268 269 271 273 275 277 279 281 282 282 284 285 287 289 290 292 293 295
229 229 228 223 225 239 251 249 251 257 259 256 258 261 264 268 266 265 264 263 265 266 269 271 273 271 270 270 272 274 277 279 282 284 285 287 288 289 290 291 292 293 294 295
234 239 242 241 238 236 244 244 241 245 252 255 256 262 264 265 265 268 267 267 266 255 257 268 274 274 274 274 276 278 280 282 283 285 287 290 291 292 293 292 293 294 293 294
242 245 247 244 236 236 235 235 235 239 244 251 252 253 257 260 262 265 265 267 264 261 270 276 276 277 277 277 278 279 281 283 285 287 289 291 291 292 292 292 292 293 292 292
245 245 246 244 235 231 237 239 239 236 230 235 244 256 262 262 259 260 263 269 274 284 288 286 282 281 279 279 279 281 283 285 286 288 290 291 291 292 292 292 291 291 290 290
248 248 249 249 246 238 238 239 240 244 247 252 253 258 258 255 257 262 267 272 278 284 287 286 285 283 281 281 281 282 284 285 287 288 290 291 291 291 291 290 288 287 288 289
256 255 253 253 252 250 247 246 248 249 250 252 253 255 259 262 265 268 271 275 278 280 282 284 285 285 284 284 283 283 283 284 286 287 289 290 289 288 289 289 287 287 288 291
255 256 256 255 254 254 258 253 251 252 254 255 259 263 268 270 272 273 274 276 278 280 283 285 286 286 285 284 283 282 283 283 285 287 288 288 288 289 289 290 290 291 295 300
254 255 256 256 256 257 253 253 255 255 257 260 264 267 270 272 273 273 275 277 279 281 283 284 285 285 284 283 282 282 282 283 285 286 286 287 288 289 290 291 293 298 303 304
255 256 255 254 254 252 248 251 254 258 260 263 266 269 270 271 273 275 276 278 279 281 282 283 283 283 283 283 283 283 283 284 284 284 285 286 287 288 290 294 299 304 305 305
254 256 256 254 253 249 251 253 255 255 261 268 271 272 272 273 275 277 278 279 280 281 282 283 284 284 284 284 283 283 283 282 282 283 285 286 289 293 298 303 305 305 305 305
257 259 256 254 252 249 253 255 257 262 267 270 272 273 275 275 277 278 280 280 281 282 283 284 286 287 287 286 285 284 283 283 282 284 287 292 297 301 304 305 305 305 306 307
254 254 255 256 258 260 260 260 262 265 268 271 273 274 275 276 277 279 279 280 281 283 285 288 289 290 289 288 286 284 284 286 288 293 298 303 304 305 305 306 307 308 309 310
258 257 256 255 256 260 264 267 268 269 270 271 272 273 274 275 277 278 279 281 284 286 288 290 292 292 290 289 287 289 291 295 300 304 306 307 306 307 309 310 312 313 314 314
262 263 261 259 260 263 267 270 271 270 271 270 271 272 272 273 274 276 279 283 286 290 291 292 293 293 292 293 297 302 306 308 308 308 309 310 311 313 315 316 318 319 319 320
265 268 267 264 263 264 266 267 267 267 267 266 267 268 269 269 271 275 280 285 289 292 294 295 297 301 307 311 313 313 312 312 312 313 313 315 317 319 321 322 323 325 326 327
Height
5824 5827 5830 5834 5837 5840 5843 5846 5852 5856 5859 5861 5860 5860 5861 5864 5864 5863 5864 5864 5865 5865 5862 5857 5852 5846 5844 5846 5849 5850 5848 5848 5848 5846 5844 5843 5841 5840 5839 5837 5834 5832 5830 5827
5819 5823 5827 5829 5832 5835 5838 5840 5844 5849 5853 5855 5855 5854 5853 5855 5857 5857 5855 5856 5858 5859 5857 5854 5847 5843 5841 5840 5843 5844 5842 5841 5840 5839 5838 5836 5834 5832 5831 5828 5826 5823 5821 5819
5815 5820 5822 5824 5827 5831 5833 5836 5839 5842 5844 5846 5847 5846 5846 5846 5849 5850 5849 5848 5848 5850 5850 5847 5842 5838 5837 5835 5836 5836 5834 5834 5832 5831 5830 5828 5826 5824 5822 5820 5817 5815 5812 5810
5811 5815 5820 5821 5823 5826 5828 5830 5832 5833 5835 5837 5840 5839 5841 5840 5840 5840 5841 5841 5840 5840 5841 5838 5835 5831 5830 5829 5829 5828 5827 5826 5824 5822 5821 5819 5816 5815 5813 5811 5809 5806 5803 5800
5807 5811 5814 5817 5819 5821 5822 5825 5826 5828 5828 5829 5830 5830 5831 5835 5835 5835 5835 5834 5833 5831 5831 5828 5826 5825 5824 5823 5821 5820 5819 5817 5816 5814 5812 5810 5807 5806 5803 5802 5799 5796 5794 5791
5803 5808 5811 5813 5815 5815 5817 5819 5820 5820 5822 5822 5824 5824 5823 5827 5828 5830 5830 5828 5824 5821 5820 5819 5818 5818 5818 5816 5814 5812 5811 5809 5808 5806 5804 5802 5799 5797 5795 5792 5789 5786 5784 5782
5799 5802 5806 5809 5810 5812 5813 5814 5815 5816 5816 5817 5819 5818 5819 5820 5821 5823 5822 5819 5815 5813 5812 5810 5810 5810 5810 5808 5806 5804 5803 5801 5800 5798 5796 5794 5791 5788 5786 5783 5780 5776 5773 5771
5795 5798 5801 5803 5805 5807 5808 5809 5811 5813 5814 5816 5818 5816 5816 5813 5812 5813 5813 5811 5808 5805 5804 5803 5803 5802 5801 5799 5798 5796 5795 5793 5791 5789 5787 5785 5782 5779 5777 5773 5771 5767 5763 5760
5791 5796 5799 5798 5799 5801 5802 5804 5807 5807 5807 5807 5808 5810 5811 5810 5807 5805 5804 5803 5801 5796 5795 5795 5794 5793 5791 5790 5789 5787 5786 5784 5783 5781 5778 5776 5773 5770 5767 5763 5761 5758 5753 5748
5782 5786 5790 5792 5794 5795 5796 5799 5801 5801 5802 5801 5802 5804 5805 5801 5799 5798 5795 5793 5789 5786 5786 5786 5785 5784 5782 5781 5780 5779 5777 5775 5773 5771 5769 5766 5763 5760 5757 5754 5750 5746 5742 5737
5774 5778 5783 5787 5790 5791 5793 5793 5793 5795 5797 5797 5797 5800 5795 5792 5791 5790 5789 5786 5781 5779 5779 5778 5776 5775 5774 5773 5772 5770 5769 5766 5764 5762 5759 5756 5753 5749 5746 5743 5739 5734 5729 5724
5767 5770 5773 5778 5782 5786 5787 5787 5789 5788 5788 5788 5789 5793 5788 5785 5783 5782 5780 5776 5771 5769 5770 5769 5768 5767 5766 5765 5763 5762 5760 5757 5755 5752 5749 5746 5742 5738 5734 5731 5726 5722 5716 5710
5759 5762 5765 5770 5776 5778 5778 5779 5780 5781 5781 5780 5781 5785 5777 5774 5775 5774 5772 5767 5762 5754 5757 5760 5761 5760 5758 5757 5755 5753 5750 5748 5745 5741 5738 5735 5731 5727 5722 5718 5713 5707 5702 5696
5751 5753 5757 5762 5767 5766 5767 5768 5769 5772 5774 5774 5774 5773 5765 5764 5766 5765 5760 5756 5749 5742 5749 5753 5753 5752 5750 5748 5746 5743 5740 5737 5734 5730 5727 5723 5719 5714 5709 5704 5699 5693 5687 5681
5740 5743 5746 5750 5754 5756 5756 5758 5759 5760 5760 5761 5762 5761 5753 5754 5754 5753 5751 5749 5746 5742 5742 5744 5744 5742 5740 5738 5735 5732 5729 5725 5722 5718 5714 5710 5706 5701 5696 5690 5685 5679 5673 5667
5729 5733 5735 5739 5743 5746 5748 5750 5751 5752 5752 5751 5752 5750 5741 5743 5745 5745 5744 5741 5738 5735 5733 5732 5732 5731 5729 5726 5723 5720 5716 5713 5709 5705 5701 5697 5692 5687 5682 5676 5670 5664 5658 5653
5720 5724 5726 5729 5732 5733 5737 5742 5742 5743 5742 5740 5737 5734 5734 5736 5738 5737 5736 5733 5730 5726 5723 5722 5720 5718 5716 5713 5710 5707 5703 5700 5696 5692 5688 5684 5679 5674 5668 5662 5656 5650 5645 5639
5712 5714 5717 5719 5722 5723 5730 5729 5729 5730 5728 5728 5727 5727 5727 5726 5728 5727 5725 5722 5719 5716 5713 5710 5708 5705 5703 5700 5697 5694 5691 5687 5684 5680 5676 5672 5666 5661 5655 5650 5644 5638 5632 5627
5704 5706 5708 5710 5712 5714 5717 5715 5718 5718 5715 5717 5718 5718 5718 5716 5715 5715 5714 5711 5708 5705 5702 5699 5696 5693 5690 5688 5685 5682 5679 5676 5672 5668 5664 5660 5655 5650 5644 5638 5632 5627 5622 5617
5696 5697 5700 5701 5703 5705 5705 5706 5707 5709 5705 5707 5708 5708 5708 5707 5704 5704 5702 5700 5697 5694 5691 5688 5685 5682 5679 5676 5673 5670 5668 5665 5661 5657 5653 5648 5643 5638 5632 5626 5621 5616 5612 5607
5689 5690 5692 5693 5694 5695 5695 5696 5698 5699 5697 5698 5698 5698 5697 5696 5694 5693 5691 5689 5686 5683 5680 5677 5674 5671 5668 5666 5663 5660 5657 5654 5651 5646 5642 5637 5631 5626 5621 5616 5611 5606 5602 5596
5683 5684 5685 5685 5686 5687 5686 5687 5689 5689 5688 5688 5688 5687 5687 5685 5683 5682 5680 5678 5676 5673 5670 5667 5665 5662 5659 5657 5654 5651 5648 5644 5640 5636 5631 5626 5620 5616 5612 5607 5602 5596 5591 5586
5677 5679 5679 5680 5680 5678 5678 5679 5680 5680 5680 5679 5678 5678 5676 5675 5674 5673 5671 5669 5667 5665 5662 5660 5657 5655 5652 5649 5646 5643 5639 5635 5631 5626 5622 5618 5613 5607 5603 5598 5592 5587 5581 5576
5670 5671 5672 5673 5672 5671 5670 5671 5672 5672 5671 5670 5669 5668 5667 5666 5666 5664 5663 5662 5660 5658 5656 5653 5651 5648 5645 5642 5639 5635 5631 5627 5623 5619 5615 5611 5605 5600 5594 5589 5583 5577 5572 5568
5665 5665 5666 5666 5666 5665 5664 5664 5663 5663 5662 5661 5660 5660 5659 5659 5658 5658 5657 5656 5654 5652 5650 5648 5645 5643 5640 5636 5633 5629 5625 5621 5617 5612 5608 5603 5597 5591 5585 5580 5575 5570 5566 5562
5659 5660 5660 5660 5659 5658 5657 5656 5655 5655 5654 5654 5654 5653 5653 5653 5653 5653 5652 5651 5649 5648 5646 5644 5641 5638 5635 5632 5628 5625 5620 5616 5611 5606 5600 5594 5589 5583 5578 5574 5569 5565 5562 5558